Time,TemperatureF,DewpointF,PressureIn,WindDirection,WindDirectionDegrees,WindSpeedMPH,WindSpeedGustMPH,Humidity,HourlyPrecipIn,Conditions,Clouds,dailyrainin,SoftwareType,DateUTC
2013-09-09 00:00:00,75.4,72.6,29.87,North,-999,0.0,0.0,91,0.00,,,-99.99,WeatherLink 5.6,2013-09-09 05:00:00,
2013-09-09 00:30:00,75.1,72.6,29.87,North,-999,0.0,0.0,92,0.00,,,-99.99,WeatherLink 5.6,2013-09-09 05:30:00,
2013-09-09 01:00:00,74.7,72.5,29.87,North,-999,0.0,0.0,93,0.00,,,-99.99,WeatherLink 5.6,2013-09-09 06:00:00,
2013-09-09 01:30:00,74.4,72.6,29.86,North,-999,0.0,0.0,94,0.00,,,-99.99,WeatherLink 5.6,2013-09-09 06:30:00,
2013-09-09 02:00:00,74.0,72.2,29.86,North,-999,0.0,0.0,94,0.00,,,-99.99,WeatherLink 5.6,2013-09-09 07:00:00,
2013-09-09 02:30:00,73.9,72.4,29.86,North,-999,0.0,0.0,95,0.00,,,-99.99,WeatherLink 5.6,2013-09-09 07:30:00,
2013-09-09 03:00:00,73.5,72.0,29.86,North,-999,0.0,0.0,95,0.00,,,-99.99,WeatherLink 5.6,2013-09-09 08:00:00,
2013-09-09 03:30:00,73.0,71.5,29.87,North,-999,0.0,0.0,95,0.00,,,-99.99,WeatherLink 5.6,2013-09-09 08:30:00,
2013-09-09 04:00:00,72.7,71.5,29.87,North,-999,0.0,0.0,96,0.00,,,-99.99,WeatherLink 5.6,2013-09-09 09:00:00,
2013-09-09 04:30:00,72.7,71.5,29.88,SE,135,0.0,1.0,96,0.00,,,-99.99,WeatherLink 5.6,2013-09-09 09:30:00,
2013-09-09 05:00:00,72.7,71.2,29.88,North,-999,0.0,0.0,95,0.00,,,-99.99,WeatherLink 5.6,2013-09-09 10:00:00,
2013-09-09 05:30:00,72.7,71.2,29.89,SE,135,0.0,1.0,95,0.00,,,-99.99,WeatherLink 5.6,2013-09-09 10:30:00,
2013-09-09 06:00:00,72.1,70.9,29.89,North,-999,0.0,0.0,96,0.00,,,-99.99,WeatherLink 5.6,2013-09-09 11:00:00,
2013-09-09 06:30:00,71.8,70.6,29.90,North,-999,0.0,0.0,96,0.00,,,-99.99,WeatherLink 5.6,2013-09-09 11:30:00,
2013-09-09 07:00:00,71.8,70.6,29.91,North,-999,0.0,0.0,96,0.00,,,-99.99,WeatherLink 5.6,2013-09-09 12:00:00,
2013-09-09 07:30:00,72.7,71.5,29.92,North,-999,0.0,0.0,96,0.00,,,-99.99,WeatherLink 5.6,2013-09-09 12:30:00,
2013-09-09 08:00:00,74.7,73.5,29.92,East,90,0.0,3.0,96,0.00,,,-99.99,WeatherLink 5.6,2013-09-09 13:00:00,
2013-09-09 08:30:00,78.3,73.8,29.93,ENE,67,0.0,4.0,86,0.00,,,-99.99,WeatherLink 5.6,2013-09-09 13:30:00,
2013-09-09 09:00:00,81.4,74.3,29.93,NE,45,0.0,5.0,79,0.00,,,-99.99,WeatherLink 5.6,2013-09-09 14:00:00,
2013-09-09 09:30:00,84.5,74.5,29.94,ENE,67,0.0,6.0,72,0.00,,,-99.99,WeatherLink 5.6,2013-09-09 14:30:00,
2013-09-09 10:00:00,85.9,73.2,29.95,NE,45,1.0,7.0,66,0.00,,,-99.99,WeatherLink 5.6,2013-09-09 15:00:00,
2013-09-09 10:30:00,87.0,72.4,29.95,NE,45,3.0,10.0,62,0.00,,,-99.99,WeatherLink 5.6,2013-09-09 15:30:00,
2013-09-09 11:00:00,87.4,71.8,29.94,ENE,67,3.0,9.0,60,0.00,,,-99.99,WeatherLink 5.6,2013-09-09 16:00:00,
2013-09-09 11:30:00,89.5,73.3,29.95,ENE,67,2.0,11.0,59,0.00,,,-99.99,WeatherLink 5.6,2013-09-09 16:30:00,
2013-09-09 12:00:00,88.6,71.4,29.94,NE,45,3.0,11.0,57,0.00,,,-99.99,WeatherLink 5.6,2013-09-09 17:00:00,
2013-09-09 12:30:00,91.0,73.1,29.94,ENE,67,2.0,7.0,56,0.00,,,-99.99,WeatherLink 5.6,2013-09-09 17:30:00,
2013-09-09 13:00:00,90.3,73.0,29.93,SE,135,2.0,6.0,57,0.00,,,-99.99,WeatherLink 5.6,2013-09-09 18:00:00,
2013-09-09 13:30:00,89.7,69.7,29.93,SE,135,3.0,12.0,52,0.00,,,-99.99,WeatherLink 5.6,2013-09-09 18:30:00,
2013-09-09 14:00:00,91.4,71.9,29.92,SE,135,4.0,14.0,53,0.00,,,-99.99,WeatherLink 5.6,2013-09-09 19:00:00,
2013-09-09 14:30:00,90.3,68.5,29.91,South,180,4.0,13.0,49,0.00,,,-99.99,WeatherLink 5.6,2013-09-09 19:30:00,
2013-09-09 15:00:00,90.1,70.7,29.91,SSW,202,5.0,16.0,53,0.00,,,-99.99,WeatherLink 5.6,2013-09-09 20:00:00,
2013-09-09 15:30:00,90.3,70.3,29.91,SSW,202,5.0,15.0,52,0.00,,,-99.99,WeatherLink 5.6,2013-09-09 20:30:00,
2013-09-09 16:00:00,90.3,69.1,29.90,SSW,202,4.0,15.0,50,0.00,,,-99.99,WeatherLink 5.6,2013-09-09 21:00:00,
2013-09-09 16:30:00,91.4,69.0,29.90,SE,135,1.0,8.0,48,0.00,,,-99.99,WeatherLink 5.6,2013-09-09 21:30:00,
2013-09-09 17:00:00,89.0,69.6,29.90,SSW,202,4.0,11.0,53,0.00,,,-99.99,WeatherLink 5.6,2013-09-09 22:00:00,
2013-09-09 17:30:00,89.3,70.5,29.90,SSW,202,3.0,12.0,54,0.00,,,-99.99,WeatherLink 5.6,2013-09-09 22:30:00,
2013-09-09 18:00:00,87.8,71.2,29.90,South,180,2.0,7.0,58,0.00,,,-99.99,WeatherLink 5.6,2013-09-09 23:00:00,
2013-09-09 18:30:00,86.3,70.8,29.90,SSW,202,3.0,7.0,60,0.00,,,-99.99,WeatherLink 5.6,2013-09-09 23:30:00,
2013-09-09 19:00:00,84.9,71.4,29.89,SSW,202,1.0,5.0,64,0.00,,,-99.99,WeatherLink 5.6,2013-09-10 00:00:00,
2013-09-09 19:30:00,83.4,71.7,29.90,SE,135,0.0,1.0,68,0.00,,,-99.99,WeatherLink 5.6,2013-09-10 00:30:00,
2013-09-09 20:00:00,81.2,72.1,29.90,SE,135,0.0,1.0,74,0.00,,,-99.99,WeatherLink 5.6,2013-09-10 01:00:00,
2013-09-09 20:30:00,79.6,72.1,29.91,North,-999,0.0,0.0,78,0.00,,,-99.99,WeatherLink 5.6,2013-09-10 01:30:00,
2013-09-09 21:00:00,79.2,72.5,29.92,North,-999,0.0,0.0,80,0.00,,,-99.99,WeatherLink 5.6,2013-09-10 02:00:00,
2013-09-09 21:30:00,78.1,72.2,29.93,North,-999,0.0,0.0,82,0.00,,,-99.99,WeatherLink 5.6,2013-09-10 02:30:00,
2013-09-09 22:00:00,77.4,72.5,29.93,North,-999,0.0,0.0,85,0.00,,,-99.99,WeatherLink 5.6,2013-09-10 03:00:00,
2013-09-09 22:30:00,77.2,73.4,29.93,SE,135,0.0,1.0,88,0.00,,,-99.99,WeatherLink 5.6,2013-09-10 03:30:00,
2013-09-09 23:00:00,76.7,72.9,29.93,North,-999,0.0,0.0,88,0.00,,,-99.99,WeatherLink 5.6,2013-09-10 04:00:00,
2013-09-09 23:30:00,76.1,73.0,29.93,North,-999,0.0,0.0,90,0.00,,,-99.99,WeatherLink 5.6,2013-09-10 04:30:00,